GW2386 Weather Reports


Display with metric or nautical units.
time (UTC)temp
F
wind
direction
speed
MPH
gust
MPH
rain 1hr
in
rain 24hr
in
rain mn
in
humidity
%
barometer
mb
20260507104556 55 42 4.0 9.0 0.00 0.11 0.00 81 1018.6
20260507103054 55 34 4.0 7.0 0.00 0.11 0.00 81 1018.8
20260507101556 55 60 4.0 7.0 0.00 0.11 0.00 80 1019.1
20260507100054 55 62 2.0 6.0 0.00 0.11 0.00 80 1018.9
20260507094554 55 53 4.0 7.0 0.00 0.11 0.00 80 1018.7
20260507093056 55 56 4.0 8.0 0.00 0.11 0.00 80 1018.6
20260507091555 55 57 4.0 8.0 0.00 0.11 0.00 80 1018.5
20260507090057 55 46 4.0 8.0 0.00 0.11 0.00 80 1018.4
20260507084556 55 56 3.0 6.0 0.00 0.11 0.00 80 1018.3
20260507083101 55 61 3.0 7.0 0.00 0.11 0.00 80 1018.3
20260507081556 55 57 2.0 5.0 0.00 0.11 0.00 79 1018.1
20260507080113 55 51 1.0 5.0 0.00 0.11 0.00 80 1017.8
20260507074555 55 47 2.0 5.0 0.00 0.11 0.00 80 1017.7
20260507073057 55 60 2.0 4.0 0.00 0.11 0.00 80 1017.5
20260507071609 55 61 1.0 4.0 0.00 0.11 0.00 79 1017.6
20260507070057 55 61 2.0 4.0 0.00 0.11 0.00 79 1017.5
20260507064600 56 48 3.0 5.0 0.00 0.11 0.00 79 1017.0
20260507063057 56 23 4.0 8.0 0.00 0.11 0.00 79 1016.7
20260507061559 56 59 2.0 4.0 0.00 0.11 0.00 78 1016.8
20260507060058 56 66 2.0 4.0 0.00 0.11 0.00 77 1016.6
20260507054556 57 68 2.0 4.0 0.00 0.11 0.00 77 1016.6
20260507053121 57 74 2.0 5.0 0.00 0.11 0.00 77 1016.7
20260507051601 57 69 1.0 3.0 0.00 0.11 0.00 76 1016.6
20260507050055 58 70 0.0 3.0 0.00 0.11 0.00 75 1016.3
20260507044557 58 71 0.0 3.0 0.00 0.11 0.11 74 1016.3
20260507043101 59 73 2.0 5.0 0.00 0.11 0.11 73 1016.0
20260507041558 60 61 1.0 5.0 0.00 0.11 0.11 73 1015.9
20260507040054 60 67 1.0 3.0 0.00 0.11 0.11 73 1015.8
20260507034556 61 0 1.0 3.0 0.00 0.11 0.11 71 1015.3
20260507033101 61 67 1.0 3.0 0.00 0.11 0.11 70 1014.9
20260507031558 62 67 0.0 2.0 0.00 0.11 0.11 68 1014.9
20260507030057 62 0 0.0 2.0 0.00 0.11 0.11 67 1014.6
20260507024605 63 68 0.0 3.0 0.00 0.11 0.11 65 1014.3
20260507023100 64 67 1.0 2.0 0.00 0.11 0.11 65 1014.2
20260507021554 65 72 1.0 6.0 0.00 0.11 0.11 64 1014.2
20260507020057 65 53 1.0 4.0 0.00 0.11 0.11 66 1013.9
20260507014612 66 72 1.0 4.0 0.00 0.11 0.11 67 1013.7
20260507013056 67 121 0.0 3.0 0.00 0.11 0.11 65 1013.5
20260507011558 68 121 1.0 3.0 0.00 0.11 0.11 62 1013.3
20260507010103 69 113 2.0 7.0 0.00 0.11 0.11 61 1013.2
20260507004611 70 80 1.0 4.0 0.00 0.11 0.11 59 1013.1
20260507003059 70 88 1.0 5.0 0.00 0.11 0.11 60 1012.8
20260507001556 70 92 0.0 8.0 0.00 0.11 0.11 60 1012.9
20260507000056 72 133 1.0 6.0 0.00 0.11 0.11 59 1012.9
20260506234555 72 121 1.0 6.0 0.00 0.11 0.11 58 1012.8
20260506233058 72 120 1.0 6.0 0.00 0.11 0.11 59 1012.8
20260506231553 72 104 2.0 7.0 0.00 0.11 0.11 58 1012.7
20260506230056 73 138 1.0 5.0 0.00 0.11 0.11 56 1012.7
20260506224556 74 86 1.0 7.0 0.00 0.11 0.11 55 1012.6
20260506223058 74 154 3.0 9.0 0.00 0.11 0.11 55 1012.4
20260506221557 74 128 2.0 6.0 0.00 0.11 0.11 55 1012.4
20260506220054 74 138 2.0 7.0 0.00 0.11 0.11 55 1012.4
20260506214603 75 146 2.0 7.0 0.00 0.11 0.11 53 1012.5
20260506213055 75 178 2.0 7.0 0.00 0.11 0.11 53 1012.7
20260506211600 74 115 2.0 7.0 0.00 0.11 0.11 55 1012.8
20260506210058 73 140 2.0 7.0 0.00 0.11 0.11 56 1012.9
20260506204554 73 131 1.0 8.0 0.00 0.11 0.11 56 1012.9
20260506203053 73 140 1.0 4.0 0.00 0.11 0.11 55 1013.1
20260506201556 73 137 2.0 10.0 0.00 0.11 0.11 54 1013.5
20260506200105 72 24 1.0 7.0 0.00 0.11 0.11 53 1013.7
20260506194605 70 138 1.0 4.0 0.00 0.11 0.11 57 1014.0
20260506193055 69 9 1.0 8.0 0.00 0.11 0.11 57 1014.2
20260506191606 68 38 1.0 5.0 0.00 0.11 0.11 61 1014.3
20260506190057 66 57 0.0 6.0 0.00 0.11 0.11 63 1014.3
20260506184557 65 26 2.0 6.0 0.00 0.11 0.11 63 1014.5
20260506183106 66 76 2.0 9.0 0.00 0.11 0.11 63 1014.9
20260506181601 66 18 2.0 9.0 0.00 0.11 0.11 64 1014.8
20260506180114 66 22 2.0 10.0 0.00 0.11 0.11 66 1014.9
20260506174554 66 348 2.0 6.0 0.00 0.11 0.11 64 1015.0
20260506173129 65 22 3.0 9.0 0.00 0.11 0.11 65 1014.9
20260506171603 65 0 1.0 9.0 0.00 0.11 0.11 67 1015.1
20260506170057 64 48 3.0 9.0 0.00 0.11 0.11 70 1015.0
20260506164556 64 352 3.0 9.0 0.00 0.11 0.11 68 1015.0
20260506163100 61 5 2.0 9.0 0.00 0.11 0.11 73 1014.8
20260506161557 60 33 2.0 10.0 0.00 0.11 0.11 74 1014.9
20260506160100 59 360 7.0 13.0 0.00 0.11 0.11 75 1014.7
20260506154558 59 34 3.0 13.0 0.00 0.11 0.11 77 1014.6
20260506153057 59 24 2.0 9.0 0.00 0.11 0.11 77 1014.4
20260506151554 57 338 6.0 14.0 0.00 0.11 0.11 81 1014.0
20260506150059 55 360 3.0 12.0 0.00 0.11 0.11 84 1013.9
20260506144606 54 38 4.0 11.0 0.00 0.11 0.11 85 1013.8
20260506143056 54 9 2.0 8.0 0.00 0.11 0.11 87 1014.3
20260506141556 54 35 6.0 12.0 0.00 0.11 0.11 89 1013.8
20260506140055 53 317 2.0 5.0 0.00 0.11 0.11 91 1013.2
20260506134605 52 38 2.0 8.0 0.00 0.11 0.11 91 1013.6
20260506133101 53 28 3.0 6.0 0.00 0.11 0.11 91 1013.7
20260506131556 52 55 2.0 6.0 0.02 0.11 0.11 91 1013.6
20260506130054 52 64 1.0 5.0 0.02 0.11 0.11 90 1012.3
20260506124558 53 45 2.0 6.0 0.03 0.11 0.11 90 1012.6
20260506123054 53 19 2.0 6.0 0.04 0.11 0.11 90 1013.0
20260506121557 53 53 2.0 6.0 0.04 0.09 0.09 89 1012.5
20260506120101 54 111 1.0 6.0 0.09 0.09 0.09 88 1011.1
20260506114557 54 87 0.0 4.0 0.08 0.08 0.08 87 1012.6
20260506113100 54 84 1.0 6.0 0.07 0.07 0.07 86 1010.9
20260506111559 55 28 1.0 4.0 0.05 0.05 0.05 82 1011.3
20260506110057 56 49 2.0 4.0 0.00 0.00 0.00 79 1011.4